Weather History for Port Aransas, TX

Change the Weather History Date:

Monday, April 22, 2013

  Actual Average (KCRP) Record (KCRP)
Temperature  
Mean Temperature 70 °F 74 °F  
Max Temperature 75 °F 83 °F 96 °F (2009)
Min Temperature 66 °F 65 °F 49 °F (1998)
Degree Days  
Heating Degree Days 0 0  
Month to date heating degree days 15  
Since 1 July heating degree days 896  
Cooling Degree Days 5 9  
Month to date cooling degree days 160  
Year to date cooling degree days 351  
Growing Degree Days 20 (Base 50)    
Moisture  
Dew Point 65 °F    
Average Humidity 84    
Maximum Humidity 92    
Minimum Humidity 74    
Precipitation  
Precipitation 0.00 in 0.06 in 1.93 in (1952)
Month to date precipitation 1.28  
Year to date precipitation 6.64  
Snow  
Snow 0.00 in - - ()
Month to date snowfall  
Since 1 July snowfall  
Snow Depth -    
Sea Level Pressure  
Sea Level Pressure 30.02 in    
Wind  
Wind Speed 11 mph (ESE)    
Max Wind Speed 16 mph    
Max Gust Speed 22 mph    
Visibility 10 miles    
Events Rain    
T = Trace of Precipitation, MM = Missing Value Source: NWS Daily Summary

Daily Weather History Graph

Daily Weather History Graph

Search for Another Location

Airport:

Trip Planner

Search our weather history database for the weather conditions in past years. The results will help you decide how hot, cold, wet, or windy it might be!

Date:

Astronomy

Apr. 22, 2013 Rise Set
Actual Time 6:56 AM CDT 7:57 PM CDT
Civil Twilight 6:32 AM CDT 8:21 PM CDT
Nautical Twilight 6:03 AM CDT 8:50 PM CDT
Astronomical Twilight 5:33 AM CDT 9:20 PM CDT
Moon 5:02 PM CDT (4/22) 4:34 AM CDT (4/22)
Length of Visible Light 13h 49m
Length of Day
13h 01m
Waxing Gibbous, 88% of the Moon is Illuminated
Apr 22
Waxing Gibbous
Apr 25
Full
May 2
Last Quarter
May 9
New
May 17
First Quarter

Hourly Weather History & Observations

Time (CDT) Temp. Dew Point Humidity Pressure Visibility Wind Dir Wind Speed Gust Speed Precip Events Conditions
12:15 AM 67.1 °F 63.0 °F 87% 30.08 in 10.0 mi East 15.0 mph 21.9 mph N/A   Scattered Clouds
12:35 AM 67.1 °F 63.0 °F 87% 30.08 in 10.0 mi East 16.1 mph 20.7 mph N/A   Clear
12:55 AM 67.1 °F 63.0 °F 87% 30.08 in 10.0 mi East 12.7 mph - N/A   Clear
1:15 AM 67.1 °F 63.5 °F 88% 30.08 in 10.0 mi East 12.7 mph - N/A   Clear
1:35 AM 67.1 °F 63.5 °F 88% 30.07 in 10.0 mi East 11.5 mph 16.1 mph N/A   Clear
1:55 AM 67.1 °F 63.5 °F 88% 30.07 in 10.0 mi East 11.5 mph - N/A   Clear
2:15 AM 67.1 °F 63.7 °F 89% 30.06 in 10.0 mi East 11.5 mph - N/A   Clear
2:35 AM 66.9 °F 63.5 °F 89% 30.06 in 10.0 mi East 10.4 mph - N/A   Clear
2:55 AM 66.7 °F 63.3 °F 89% 30.06 in 10.0 mi East 9.2 mph - N/A   Clear
3:15 AM 66.7 °F 63.5 °F 89% 30.05 in 10.0 mi East 9.2 mph - N/A   Clear
3:35 AM 66.7 °F 63.7 °F 90% 30.05 in 10.0 mi ESE 8.1 mph - N/A   Clear
3:55 AM 67.1 °F 63.9 °F 89% 30.04 in 10.0 mi East 9.2 mph - N/A   Mostly Cloudy
4:15 AM 67.1 °F 63.9 °F 89% 30.04 in 10.0 mi East 10.4 mph - N/A   Mostly Cloudy
4:35 AM 67.1 °F 63.7 °F 89% 30.04 in 10.0 mi East 9.2 mph - N/A   Scattered Clouds
4:55 AM 66.7 °F 63.7 °F 90% 30.04 in 10.0 mi East 10.4 mph - N/A   Clear
5:15 AM 66.7 °F 63.5 °F 89% 30.03 in 10.0 mi East 8.1 mph - N/A   Clear
5:35 AM 66.7 °F 63.5 °F 89% 30.04 in 10.0 mi East 9.2 mph - N/A   Clear
5:55 AM 66.9 °F 63.7 °F 89% 30.04 in 10.0 mi East 6.9 mph - N/A   Scattered Clouds
6:15 AM 67.1 °F 63.9 °F 89% 30.04 in 10.0 mi East 8.1 mph - N/A   Mostly Cloudy
6:35 AM 67.3 °F 63.7 °F 88% 30.05 in 10.0 mi East 8.1 mph - N/A   Overcast
6:55 AM 67.1 °F 63.7 °F 89% 30.05 in 10.0 mi East 8.1 mph - N/A   Overcast
7:15 AM 67.1 °F 63.5 °F 88% 30.05 in 10.0 mi East 8.1 mph - N/A   Scattered Clouds
7:35 AM 67.3 °F 63.5 °F 88% 30.06 in 10.0 mi East 8.1 mph - N/A   Clear
7:55 AM 68.2 °F 63.7 °F 85% 30.06 in 10.0 mi East 8.1 mph - N/A   Clear
8:15 AM 69.1 °F 64.0 °F 84% 30.06 in 10.0 mi East 8.1 mph - N/A   Clear
8:35 AM 69.8 °F 64.0 °F 82% 30.06 in 10.0 mi East 9.2 mph - N/A   Clear
8:55 AM 70.3 °F 64.4 °F 81% 30.06 in 10.0 mi East 8.1 mph - N/A   Clear
9:15 AM 71.1 °F 64.4 °F 79% 30.07 in 10.0 mi East 8.1 mph - N/A   Clear
9:35 AM 71.1 °F 63.9 °F 78% 30.07 in 10.0 mi East 9.2 mph - N/A   Clear
9:55 AM 71.6 °F 64.4 °F 78% 30.08 in 10.0 mi East 8.1 mph - N/A   Clear
10:15 AM 72.1 °F 64.6 °F 77% 30.08 in 10.0 mi ESE 10.4 mph - N/A   Clear
10:35 AM 72.5 °F 64.6 °F 76% 30.09 in 10.0 mi ESE 9.2 mph - N/A   Clear
10:55 AM 73.0 °F 64.6 °F 75% 30.09 in 10.0 mi ESE 10.4 mph - N/A   Clear
11:15 AM 72.5 °F 64.4 °F 76% 30.09 in 10.0 mi ESE 8.1 mph - N/A   Clear
11:35 AM 72.9 °F 64.6 °F 75% 30.08 in 10.0 mi ESE 6.9 mph - N/A   Clear
11:55 AM 73.2 °F 64.8 °F 75% 30.08 in 10.0 mi East 6.9 mph - N/A   Clear
12:15 PM 73.4 °F 64.6 °F 74% 30.08 in 10.0 mi ESE 5.8 mph - N/A   Clear
12:35 PM 73.4 °F 64.6 °F 74% 30.07 in 10.0 mi SE 8.1 mph - N/A   Scattered Clouds
12:55 PM 73.8 °F 65.1 °F 74% 30.06 in 10.0 mi SE 5.8 mph - N/A   Clear
1:15 PM 73.4 °F 64.9 °F 75% 30.05 in 10.0 mi ESE 6.9 mph - N/A   Clear
1:35 PM 74.1 °F 65.5 °F 74% 30.04 in 10.0 mi SE 6.9 mph - N/A   Clear
1:55 PM 74.1 °F 65.5 °F 74% 30.03 in 10.0 mi ESE 6.9 mph - N/A   Clear
2:15 PM 73.9 °F 65.7 °F 75% 30.02 in 10.0 mi ESE 8.1 mph - N/A   Clear
2:35 PM 74.7 °F 66.2 °F 75% 30.01 in 10.0 mi ESE 9.2 mph - N/A   Clear
2:55 PM 74.8 °F 66.4 °F 75% 30.00 in 10.0 mi ESE 9.2 mph - N/A   Clear
3:15 PM 74.7 °F 66.4 °F 75% 29.99 in 10.0 mi ESE 10.4 mph - N/A   Clear
3:35 PM 74.3 °F 66.6 °F 77% 29.98 in 10.0 mi East 9.2 mph - N/A Rain Light Rain
3:55 PM 74.7 °F 66.7 °F 76% 29.97 in 10.0 mi East 11.5 mph - N/A   Light Drizzle
4:15 PM 74.7 °F 67.1 °F 77% 29.96 in 10.0 mi East 12.7 mph - N/A   Clear
4:35 PM 74.3 °F 67.1 °F 78% 29.96 in 10.0 mi ESE 13.8 mph - N/A   Clear
4:55 PM 74.5 °F 66.9 °F 77% 29.95 in 10.0 mi ESE 12.7 mph 17.3 mph N/A   Clear
5:15 PM 74.3 °F 66.9 °F 78% 29.95 in 10.0 mi ESE 12.7 mph - N/A   Clear
5:35 PM 73.8 °F 67.1 °F 80% 29.94 in 10.0 mi ESE 11.5 mph - N/A   Clear
5:55 PM 73.6 °F 66.9 °F 80% 29.93 in 10.0 mi ESE 12.7 mph - N/A   Clear
6:15 PM 73.0 °F 66.7 °F 81% 29.93 in 10.0 mi ESE 12.7 mph 17.3 mph N/A   Clear
6:35 PM 72.9 °F 67.1 °F 82% 29.93 in 10.0 mi ESE 11.5 mph 17.3 mph N/A   Clear
6:55 PM 72.1 °F 67.1 °F 84% 29.93 in 10.0 mi ESE 11.5 mph - N/A   Clear
7:15 PM 71.2 °F 66.7 °F 86% 29.93 in 10.0 mi ESE 11.5 mph - N/A   Clear
7:35 PM 70.7 °F 66.7 °F 87% 29.93 in 10.0 mi ESE 9.2 mph 16.1 mph N/A   Clear
7:55 PM 70.2 °F 66.7 °F 89% 29.93 in 10.0 mi ESE 11.5 mph - N/A   Clear
8:15 PM 69.8 °F 66.7 °F 90% 29.94 in 10.0 mi ESE 12.7 mph - N/A   Clear
8:35 PM 69.8 °F 66.6 °F 89% 29.94 in 10.0 mi SE 11.5 mph - N/A   Clear
8:55 PM 69.8 °F 66.7 °F 90% 29.95 in 10.0 mi ESE 10.4 mph 16.1 mph N/A   Clear
9:15 PM 69.8 °F 66.7 °F 90% 29.95 in 10.0 mi SE 10.4 mph - N/A   Clear
9:35 PM 69.8 °F 66.7 °F 90% 29.96 in 10.0 mi SE 9.2 mph 16.1 mph N/A   Clear
9:55 PM 69.8 °F 67.1 °F 91% 29.96 in 10.0 mi SE 9.2 mph - N/A   Clear
10:15 PM 69.8 °F 67.1 °F 91% 29.96 in 10.0 mi SE 11.5 mph 16.1 mph N/A   Clear
10:35 PM 69.6 °F 67.1 °F 92% 29.96 in 10.0 mi SE 9.2 mph - N/A   Clear
10:55 PM 69.6 °F 67.1 °F 92% 29.96 in 10.0 mi SE 12.7 mph - N/A   Clear
11:15 PM 69.4 °F 67.1 °F 92% 29.96 in 10.0 mi SE 12.7 mph - N/A   Clear
11:35 PM 69.3 °F 66.9 °F 92% 29.96 in 10.0 mi SE 10.4 mph 16.1 mph N/A   Clear
11:55 PM 69.3 °F 66.7 °F 92% 29.96 in 10.0 mi SSE 10.4 mph - N/A   Clear